Weather History for KOAJ - December, 2013

Change the Weather History Date:

Sunday, December 22, 2013

  Actual Average Record
Temperature  
Mean Temperature 73 °F -  
Max Temperature 80 °F 51 °F 80 °F (2013)
Min Temperature 66 °F 31 °F 19 °F (1996)
Cooling Degree Days 8    
Growing Degree Days 23 (Base 50)    
Moisture  
Dew Point 65 °F    
Average Humidity 81    
Maximum Humidity 94    
Minimum Humidity 58    
Precipitation  
Precipitation 0.00 in - - ()
Sea Level Pressure  
Sea Level Pressure 30.13 in    
Wind  
Wind Speed 11 mph (South)    
Max Wind Speed 21 mph    
Max Gust Speed 28 mph    
Visibility 10 miles    
Events      
Averages and records for this station are not official NWS values.
T = Trace of Precipitation, MM = Missing Value Source: NWS Daily Summary

Daily Weather History Graph

Daily Weather History Graph

Search for Another Location

Airport or City:

Trip Planner

Search our weather history database for the weather conditions in past years. The results will help you decide how hot, cold, wet, or windy it might be!

Date:

Astronomy

Dec. 22, 2013 Rise Set
Actual Time 7:14 AM EST 5:03 PM EST
Civil Twilight 6:46 AM EST 5:31 PM EST
Nautical Twilight 6:14 AM EST 6:03 PM EST
Astronomical Twilight 5:44 AM EST 6:34 PM EST
Moon 10:03 PM EST 10:20 AM EST
Length of Visible Light 10h 45m
Length of Day
9h 49m
Waning Gibbous, 77% of the Moon is Illuminated
Dec 22
Waning Gibbous
Dec 25
Last Quarter
Jan 1
New
Jan 7
First Quarter
Jan 15
Full

Hourly Weather History & Observations

Time (EST) Temp. Heat Index Dew Point Humidity Pressure Visibility Wind Dir Wind Speed Gust Speed Precip Events Conditions
12:15 AM 66.2 °F - 64.4 °F 94% 30.14 in 10.0 mi South 10.4 mph - N/A   Clear
12:35 AM 66.2 °F - 64.4 °F 94% 30.14 in 10.0 mi South 9.2 mph - N/A   Clear
12:55 AM 66.2 °F - 64.4 °F 94% 30.13 in 10.0 mi South 10.4 mph - N/A   Clear
1:15 AM 66.2 °F - 64.4 °F 94% 30.13 in 10.0 mi South 10.4 mph - N/A   Partly Cloudy
1:35 AM 66.2 °F - 64.4 °F 94% 30.13 in 10.0 mi South 10.4 mph - N/A   Clear
1:55 AM 66.2 °F - 64.4 °F 94% 30.12 in 10.0 mi South 8.1 mph - N/A   Clear
2:15 AM 66.2 °F - 64.4 °F 94% 30.12 in 10.0 mi South 10.4 mph - N/A   Clear
2:35 AM 66.2 °F - 64.4 °F 94% 30.12 in 10.0 mi South 9.2 mph - N/A   Clear
2:55 AM 66.2 °F - 64.4 °F 94% 30.12 in 10.0 mi South 11.5 mph - N/A   Clear
3:15 AM 66.2 °F - 64.4 °F 94% 30.11 in 10.0 mi South 12.7 mph 18.4 mph N/A   Clear
3:35 AM 66.2 °F - 64.4 °F 94% 30.11 in 10.0 mi South 11.5 mph - N/A   Clear
3:55 AM 66.2 °F - 64.4 °F 94% 30.11 in 10.0 mi South 11.5 mph - N/A   Clear
4:15 AM 66.2 °F - 64.4 °F 94% 30.11 in 10.0 mi South 11.5 mph - N/A   Clear
4:35 AM 66.2 °F - 64.4 °F 94% 30.11 in 10.0 mi South 10.4 mph - N/A   Clear
4:55 AM 66.2 °F - 64.4 °F 94% 30.11 in 10.0 mi South 10.4 mph - N/A   Clear
5:15 AM 66.2 °F - 64.4 °F 94% 30.11 in 10.0 mi South 10.4 mph - N/A   Clear
5:35 AM 66.2 °F - 62.6 °F 88% 30.11 in 10.0 mi South 9.2 mph - N/A   Clear
5:55 AM 66.2 °F - 62.6 °F 88% 30.12 in 10.0 mi South 9.2 mph - N/A   Clear
6:15 AM 66.2 °F - 62.6 °F 88% 30.12 in 10.0 mi South 9.2 mph - N/A   Clear
6:35 AM 66.2 °F - 62.6 °F 88% 30.12 in 10.0 mi South 6.9 mph - N/A   Clear
6:55 AM 66.2 °F - 62.6 °F 88% 30.12 in 10.0 mi South 9.2 mph - N/A   Clear
7:15 AM 66.2 °F - 62.6 °F 88% 30.13 in 9.0 mi South 8.1 mph - N/A   Clear
7:35 AM 66.2 °F - 62.6 °F 88% 30.14 in 9.0 mi South 9.2 mph - N/A   Clear
7:55 AM 66.2 °F - 62.6 °F 88% 30.14 in 9.0 mi South 10.4 mph - N/A   Clear
8:15 AM 68.0 °F - 64.4 °F 88% 30.14 in 10.0 mi South 9.2 mph - N/A   Clear
8:35 AM 69.8 °F - 64.4 °F 83% 30.14 in 10.0 mi South 11.5 mph - N/A   Clear
8:55 AM 69.8 °F - 64.4 °F 83% 30.14 in 10.0 mi South 13.8 mph - N/A   Clear
9:15 AM 71.6 °F - 66.2 °F 83% 30.14 in 10.0 mi South 15.0 mph - N/A   Clear
9:35 AM 71.6 °F - 66.2 °F 83% 30.15 in 10.0 mi South 13.8 mph 19.6 mph N/A   Clear
9:55 AM 73.4 °F - 66.2 °F 78% 30.15 in 10.0 mi South 12.7 mph - N/A   Clear
10:15 AM 75.2 °F - 66.2 °F 73% 30.15 in 10.0 mi South 12.7 mph - N/A   Partly Cloudy
10:35 AM 75.2 °F - 66.2 °F 73% 30.15 in 10.0 mi South 15.0 mph 19.6 mph N/A   Scattered Clouds
10:55 AM 77.0 °F - 66.2 °F 69% 30.15 in 10.0 mi South 15.0 mph - N/A   Mostly Cloudy
11:15 AM 78.8 °F - 66.2 °F 65% 30.14 in 10.0 mi South 18.4 mph 24.2 mph N/A   Mostly Cloudy
11:35 AM 78.8 °F - 66.2 °F 65% 30.13 in 10.0 mi South 18.4 mph 26.5 mph N/A   Mostly Cloudy
11:55 AM 78.8 °F - 66.2 °F 65% 30.13 in 10.0 mi SSW 15.0 mph 26.5 mph N/A   Overcast
12:15 PM 78.8 °F - 66.2 °F 65% 30.13 in 10.0 mi SSW 16.1 mph 23.0 mph N/A   Overcast
12:35 PM 80.6 °F 82.7 °F 66.2 °F 61% 30.12 in 10.0 mi SSW 15.0 mph 21.9 mph N/A   Mostly Cloudy
12:55 PM 80.6 °F 82.7 °F 66.2 °F 61% 30.11 in 10.0 mi South 19.6 mph - N/A   Mostly Cloudy
1:15 PM 80.6 °F 82.7 °F 66.2 °F 61% 30.10 in 10.0 mi SSW 20.7 mph 27.6 mph N/A   Mostly Cloudy
1:35 PM 78.8 °F - 66.2 °F 65% 30.10 in 10.0 mi SSW 15.0 mph 26.5 mph N/A   Partly Cloudy
1:55 PM 80.6 °F 82.7 °F 66.2 °F 61% 30.10 in 10.0 mi South 15.0 mph 19.6 mph N/A   Partly Cloudy
2:15 PM 78.8 °F - 66.2 °F 65% 30.09 in 10.0 mi South 13.8 mph - N/A   Clear
2:35 PM 78.8 °F - 66.2 °F 65% 30.09 in 10.0 mi South 18.4 mph 24.2 mph N/A   Partly Cloudy
2:55 PM 80.6 °F 82.3 °F 64.4 °F 58% 30.09 in 10.0 mi SSW 13.8 mph 20.7 mph N/A   Partly Cloudy
3:15 PM 80.6 °F 82.3 °F 64.4 °F 58% 30.09 in 10.0 mi SSW 15.0 mph 20.7 mph N/A   Partly Cloudy
3:35 PM 78.8 °F - 64.4 °F 61% 30.09 in 10.0 mi South 12.7 mph - N/A   Clear
3:55 PM 78.8 °F - 66.2 °F 65% 30.09 in 10.0 mi South 12.7 mph 18.4 mph N/A   Partly Cloudy
4:15 PM 78.8 °F - 64.4 °F 61% 30.10 in 10.0 mi South 11.5 mph 17.3 mph N/A   Clear
4:35 PM 77.0 °F - 64.4 °F 65% 30.10 in 10.0 mi South 9.2 mph - N/A   Clear
4:55 PM 75.2 °F - 64.4 °F 69% 30.10 in 10.0 mi South 12.7 mph 18.4 mph N/A   Clear
5:15 PM 73.4 °F - 64.4 °F 73% 30.10 in 10.0 mi South 11.5 mph 17.3 mph N/A   Clear
5:35 PM 73.4 °F - 64.4 °F 73% 30.11 in 10.0 mi South 6.9 mph - N/A   Clear
5:55 PM 71.6 °F - 64.4 °F 78% 30.11 in 10.0 mi SSE 9.2 mph - N/A   Clear
6:15 PM 71.6 °F - 64.4 °F 78% 30.12 in 10.0 mi SSE 11.5 mph - N/A   Clear
6:35 PM 69.8 °F - 64.4 °F 83% 30.13 in 10.0 mi South 9.2 mph - N/A   Clear
6:55 PM 69.8 °F - 64.4 °F 83% 30.13 in 10.0 mi SSE 10.4 mph - N/A   Clear
7:15 PM 69.8 °F - 64.4 °F 83% 30.14 in 10.0 mi South 11.5 mph - N/A   Clear
7:35 PM 69.8 °F - 64.4 °F 83% 30.14 in 10.0 mi SSE 13.8 mph 20.7 mph N/A   Clear
7:55 PM 69.8 °F - 64.4 °F 83% 30.14 in 10.0 mi South 13.8 mph 17.3 mph N/A   Clear
8:15 PM 69.8 °F - 64.4 °F 83% 30.14 in 10.0 mi South 11.5 mph - N/A   Clear
8:35 PM 69.8 °F - 64.4 °F 83% 30.14 in 10.0 mi South 10.4 mph - N/A   Clear
8:55 PM 68.0 °F - 64.4 °F 88% 30.14 in 10.0 mi South 10.4 mph - N/A   Scattered Clouds
9:15 PM 68.0 °F - 64.4 °F 88% 30.15 in 10.0 mi South 8.1 mph - N/A   Mostly Cloudy
9:35 PM 68.0 °F - 64.4 °F 88% 30.14 in 8.0 mi South 10.4 mph - N/A   Overcast
9:55 PM 68.0 °F - 64.4 °F 88% 30.15 in 9.0 mi South 11.5 mph - N/A   Overcast
10:15 PM 68.0 °F - 66.2 °F 94% 30.15 in 10.0 mi South 10.4 mph - N/A   Overcast
10:35 PM 68.0 °F - 66.2 °F 94% 30.15 in 10.0 mi South 11.5 mph - N/A   Overcast
10:55 PM 68.0 °F - 66.2 °F 94% 30.15 in 10.0 mi South 9.2 mph - N/A   Overcast
11:15 PM 69.8 °F - 66.2 °F 88% 30.15 in 10.0 mi South 9.2 mph - N/A   Overcast
11:35 PM 69.8 °F - 66.2 °F 88% 30.15 in 10.0 mi South 9.2 mph - N/A   Overcast
11:55 PM 68.0 °F - 66.2 °F 94% 30.15 in 10.0 mi South 8.1 mph - N/A   Overcast